Location: Baia Mare
(47.6567°N, 23.5850°E)
Time: 13:17:46
(UTC+02:00)

ISS - Pass Details

Date: 01 January 2019
Orbit: 401 x 408 km, 51.6° (Epoch: 16 December)

Event Time Altitude Azimuth Distance (km) Brightness Sun altitude
Exits shadow 05:52:03 33° 47° (NE) 706 -2.4 -22.9°
Drops below altitude 10° 05:54:06 10° 64° (ENE) 1,467 -0.3 -22.5°
Sets 05:56:13 0° 68° (ENE) 2,328 1.0 -22.2°
